Location: La Miniera
(44.3667°N, 7.2667°E)
Time: 04:55:57
(UTC+00:00)

Daily predictions for brighter satellites

Satellite Brightness Start Highest point End
(mag) Time Altitude Azimuth Time Altitude Azimuth Time Altitude Azimuth
SL-16 R/B 4.3 01:09:58 25° N 01:09:58 25° N 01:12:21 10° N
ADEOS II 4.3 01:15:30 10° NNE 01:17:15 21° NNE 01:17:15 21° NNE
SL-16 R/B 4.5 01:48:08 15° NNW 01:48:08 15° NNW 01:49:45 10° N
CZ-2D R/B 4.1 01:48:28 10° N 01:50:21 22° N 01:50:21 22° N
Resurs 1-4 Rocket 4.1 02:00:10 10° N 02:01:49 19° N 02:01:49 19° N
ALOS 4.2 02:02:14 10° NE 02:05:41 24° E 02:05:41 24° E
IDEFIX/ARIANE 42P 4.1 02:33:14 10° N 02:35:50 26° NNW 02:35:50 26° NNW
ATLAS 5 CENTAUR R/B 4.2 02:40:34 11° NNW 02:40:34 11° NNW 02:41:14 10° N
Meteor 2-11 Rocket 4.4 02:39:39 71° SSE 02:40:18 81° E 02:46:26 10° N
Cosmos 2239 Rocket 4.4 02:41:02 70° NW 02:41:02 70° NW 02:46:45 10° N
Cosmos 1833 Rocket 4.4 02:38:02 17° SSE 02:41:10 28° ESE 02:45:55 10° NE
Cosmos 1821 Rocket 4.4 02:45:35 47° NW 02:45:35 47° NW 02:50:39 10° N
CZ-2C R/B 3.2 02:39:48 10° NNE 02:44:41 48° E 02:45:49 40° SE
Cosmos 2251 Rocket 3.9 02:40:02 10° NNW 02:45:17 63° ENE 02:50:27 10° SSE
Cosmos 2123 Rocket 3.8 02:48:06 10° N 02:54:21 85° W 02:57:13 35° S
FENGYUN 3A 3.5 02:49:18 10° NNE 02:54:42 89° ESE 02:55:11 75° S
ADEOS II 3.8 02:55:48 10° N 02:58:10 20° NNW 02:58:10 20° NNW
SL-19 R/B 4.5 02:55:21 10° NNE 03:01:39 82° ESE 03:04:10 38° S
Cosmos 1151 Rocket 4.2 02:59:57 25° SE 03:01:51 39° E 03:05:50 10° NNE
Cosmos 1140 Rocket 3.9 02:57:28 10° NNW 03:02:38 62° ENE 03:07:47 10° SSE
Sich 1 3.1 02:59:40 10° N 03:03:58 72° E 03:04:07 71° E
Cosmos 1697 Rocket 4.1 02:59:11 10° NNW 03:04:28 39° NE 03:09:44 10° SE
Cosmos 1934 Rocket 3.9 03:08:35 50° SW 03:10:12 67° W 03:16:32 10° N
IRS-1D 4.1 03:05:58 10° N 03:10:31 43° NW 03:10:31 43° NW
Cosmos 1535 Rocket 4.3 03:09:08 41° SSW 03:11:25 79° W 03:17:33 10° N
CBERS-1 3.9 03:07:49 10° N 03:12:55 68° WNW 03:13:28 62° WSW
Cosmos 1605 Rocket 3.9 03:08:56 22° S 03:12:59 82° E 03:19:06 10° N
ATLAS CENTAUR R/B 3.9 03:11:54 10° SSE 03:15:33 22° ESE 03:19:17 10° ENE
Cosmos 2084 4.1 03:17:23 42° SSE 03:17:23 42° SSE 03:20:19 10° SSE
USA 305 3.5 03:18:16 42° SSE 03:18:48 44° SE 03:22:45 10° ENE
CZ-2C R/B 3.0 03:17:12 10° SSE 03:22:18 64° ENE 03:27:33 10° N
METEOR-M 4.1 03:20:34 10° NNE 03:25:57 83° ESE 03:29:55 19° SSW
IRS-P3 4.2 03:26:28 10° NNE 03:31:51 81° ESE 03:36:42 13° SSW
PAYLOAD A 3.8 03:28:12 10° N 03:32:56 63° WNW 03:34:35 39° SW
Cosmos 407 Rocket 3.4 03:29:52 10° NNW 03:35:11 78° WSW 03:40:31 10° SSE
Tiangong -0.8 03:38:03 30° SSE 03:38:03 30° SSE 03:40:10 10° SE
Atlas Centaur 2 4.0 03:36:13 20° SSW 03:39:26 26° S 03:45:04 10° SE
CZ-2D R/B 3.5 03:36:39 10° NNE 03:40:36 71° ESE 03:44:05 13° S
BREEZE-M DEB (TANK) 2.6 03:41:11 37° NNW 03:42:00 52° NNE 03:47:15 10° E
Meteor 1-29 4.2 03:39:16 10° NNE 03:42:23 39° E 03:45:30 10° S
Cosmos 1980 Rocket 3.6 03:37:44 10° NNW 03:42:59 39° ENE 03:48:12 10° SE
X-37B 0.8 03:43:15 51° SSE 03:43:15 51° SSE 03:45:58 10° E
Meteor 1-14 Rocket 4.4 03:37:36 10° NNW 03:43:20 51° W 03:48:56 10° SSW
ALOS 2.8 03:39:14 10° N 03:43:31 37° WNW 03:44:08 35° W
Cosmos 1656 3.8 03:38:05 10° NNW 03:43:38 53° WSW 03:49:07 10° S
USA 307 3.0 03:51:03 29° SW 03:53:02 67° SE 03:57:11 10° ENE
H-2A R/B 4.0 03:50:20 10° NNE 03:53:47 40° E 03:57:14 10° S
Helios 1B rocket 2.8 03:50:33 10° N 03:54:24 42° WNW 03:55:37 32° WSW
ARIANE 5 R/B 2.4 03:51:10 10° N 03:56:10 64° WNW 04:00:51 11° SSW
Meteor 1-11 Rocket 3.8 03:54:18 10° NNW 04:00:18 84° W 04:06:16 10° S
SL-08 R/B 3.1 03:56:11 10° S 04:00:48 77° WSW 04:05:31 10° NNW
GP-B 4.0 03:59:24 10° SSE 04:03:42 53° E 04:08:01 10° N
Cosmos 1633 Rocket 3.0 04:00:42 10° NNW 04:05:00 63° W 04:09:17 10° S
USA 306 2.7 04:05:17 25° WSW 04:07:36 81° NW 04:11:46 10° NE
Cosmos 1484 Rocket 2.9 04:05:01 10° N 04:08:55 54° WNW 04:12:46 10° SSW
Cosmos 676 Rocket 4.0 04:06:24 10° NNW 04:11:39 87° ENE 04:16:54 10° SSE
CZ-3 R/B 4.2 03:53:52 11° SW 04:12:19 30° S 04:19:29 10° ESE
Cosmos 1933 Rocket 4.4 04:08:55 10° N 04:13:18 54° ENE 04:17:37 10° SSE
Cosmos 2098 Rocket 2.5 04:11:57 10° NNW 04:14:39 37° W 04:17:25 10° SSW
Cosmos 1666 Rocket 4.0 04:10:31 10° NNW 04:14:43 41° W 04:18:54 10° SSW
Cosmos 1624 Rocket 4.1 04:11:12 10° SSW 04:16:26 62° WNW 04:21:44 10° NNE
Cosmos 2360 4.2 04:10:51 10° NNW 04:16:30 62° WSW 04:22:04 10° S
Meteor 1-4 Rocket 2.4 04:15:48 10° NNW 04:19:23 65° W 04:22:59 10° S
CZ-2C R/B 3.3 04:14:15 10° NNE 04:20:05 88° WNW 04:25:43 10° SSW
Cosmos 2100 Rocket 3.9 04:14:00 10° S 04:20:09 80° W 04:26:20 10° N
Cosmos 1328 Rocket 3.8 04:16:41 10° SSW 04:20:53 47° WNW 04:25:09 10° N
USA 234 3.3 04:15:20 10° NE 04:21:55 87° NW 04:28:28 10° SW
CZ-2C R/B 3.7 04:18:39 10° NNW 04:22:32 23° WNW 04:25:10 15° WSW
BREEZE-M DEB (TANK) 2.5 04:20:00 12° WNW 04:24:34 83° SSW 04:26:59 10° ESE
Meteor 2-13 Rocket 4.4 04:18:39 10° N 04:24:48 78° W 04:30:56 10° S
Cosmos 1833 Rocket 3.0 04:19:47 12° SW 04:24:50 46° WNW 04:30:17 10° NNE
Cosmos 1515 4.4 04:23:59 11° SW 04:27:05 30° WNW 04:30:26 10° NNW
USA 308 2.8 04:24:31 15° WSW 04:27:49 70° NNW 04:31:57 10° NE
CZ-2C R/B 1.9 04:26:35 10° NNW 04:28:41 50° W 04:32:43 10° S
Envisat 3.1 04:23:54 10° N 04:28:52 56° WNW 04:33:49 10° SSW
Cosmos 1371 Rocket 4.4 04:24:18 10° SW 04:29:22 45° WNW 04:34:26 10° N
ERBS 3.4 04:28:10 16° WNW 04:29:40 24° NNW 04:32:07 10° NNE
Cosmos 1536 3.2 04:28:34 10° NNW 04:32:22 40° W 04:36:09 10° SSW
Cosmos 2016 Rocket 4.2 04:26:23 10° S 04:32:42 80° E 04:39:06 10° N
Meteor 1-19 Rocket 4.3 04:27:36 10° S 04:33:04 80° E 04:38:30 10° NNE
PSLV R/B 3.5 04:29:04 10° N 04:33:25 81° WNW 04:37:43 10° SSW
DMSP B5D2-2 4.4 04:28:15 10° SSE 04:33:28 71° ENE 04:38:45 10° N
COSMOS 2406 3.2 04:28:08 10° SSW 04:33:48 72° WNW 04:39:29 10° NNE
Cosmos 2082 Rocket 2.2 04:29:23 10° SSW 04:35:01 90° WNW 04:40:40 10° NNE
Cosmos 1515 Rocket 3.6 04:34:32 10° SSW 04:38:53 60° W 04:43:18 10° N
Cosmos 44 Rocket 3.4 04:34:33 10° SSW 04:39:17 78° ESE 04:44:00 10° NE
YAOGAN 6 3.6 04:36:18 10° NNW 04:39:25 27° WNW 04:42:30 10° SW
Cosmos 1151 Rocket 4.4 04:36:50 11° WSW 04:39:34 19° WNW 04:42:36 10° NNW
Cosmos 375 4.4 04:40:01 10° SW 04:43:50 68° NW 04:48:17 10° NE
Cosmos 1470 Rocket 4.0 04:41:40 10° NNW 04:45:40 38° W 04:49:41 10° SSW
Cosmos 1697 Rocket 3.3 04:43:18 10° NW 04:48:20 34° WSW 04:53:22 10° SSW
Cosmos 1346 Rocket 4.2 04:48:30 10° WSW 04:51:31 20° WNW 04:54:32 10° NNW
Cosmos 1461 4.4 04:50:12 10° S 04:53:52 38° ESE 04:57:42 10° NE
ATLAS CENTAUR R/B 2.0 04:49:13 10° SW 04:53:57 55° NW 04:58:45 10° NNE
BREEZE M DEB (TANK) 3.5 04:41:28 10° WSW 04:54:28 84° NNW 04:58:08 10° ENE
Cosmos 1850 Rocket 4.2 04:50:43 10° NNW 04:56:04 83° ENE 05:01:25 10° SSE
